Location: Unspecified
(0.0000°N, 0.0000°E)
Time: 21:23:23
(UTC+00:00)

USA 142 - Visible Passes

Search period start: 04 June 2023 00:00
Search period end: 14 June 2023 00:00
Orbit: 574 x 34749 km, 29.2° (Epoch: 23 June)

Date Brightness Start Highest point End Pass type
(mag) Time Alt. Az. Time Alt. Az. Time Alt. Az.
04 Jun 7.6 10:26:53 10° SSW 17:30:55 49° NNE 20:01:34 10° ENE visible
05 Jun 12.6 18:32:48 10° WNW 19:29:51 15° WNW 21:06:15 10° WNW visible
06 Jun 8.0 14:10:26 10° WSW 15:15:31 66° NW 23:37:31 68° N visible
07 Jun 7.7 10:35:06 10° SW 17:35:57 51° NNE 20:12:00 10° ENE visible
08 Jun 13.0 19:14:06 10° WNW 19:40:14 11° WNW 20:12:06 10° WNW visible
09 Jun 8.0 14:19:52 10° WSW 15:31:34 61° NW 23:45:14 68° NNW visible
10 Jun 7.8 10:43:23 10° SW 17:37:08 53° NNE 20:21:46 11° ENE visible
12 Jun 8.0 14:29:34 10° WSW 15:47:05 57° NW 23:53:02 64° NW visible
13 Jun 7.9 10:51:43 10° SW 17:27:02 54° NNE 20:29:35 16° ENE visible
